Location: Alpino
(32.5215°N, 116.5815°W)
Time: 05:44:22
(UTC+00:00)

Cosmos 1553 Rocket - Pass Details

Date: 13 April 2024
Orbit: 940 x 1008 km, 82.9° (Epoch: 28 May)

Event Time Altitude Azimuth Distance (km) Brightness Sun altitude
Rises 12:09:15 0° 348° (NNW) 3,696 7.2 -14.8°
Reaches altitude 10° 12:11:50 10° 344° (NNW) 2,735 6.4 -14.3°
Maximum altitude 12:17:53 53° 269° (W) 1,172 4.1 -13.1°
Drops below altitude 10° 12:23:48 10° 194° (SSW) 2,675 6.0 -12.0°
Sets 12:26:19 0° 189° (S) 3,609 6.7 -11.5°
